Surf Forecast Lombok

Surf Forecast Lombok

Kuta, Lombok, is a surfer’s paradise known for its stunning beaches, consistent waves, and vibrant surf culture. The surf forecast provides essential information for both beginner and experienced surfers looking to catch the best waves.

Our surf forecast offers detailed insights into weather conditions over the next few days, including crucial parameters such as temperature, wind speed and direction, precipitation, and cloud cover. These factors play a significant role in determining wave quality and surf conditions.

Whether you’re planning a surf trip or just curious about the ocean conditions, our accurate and up-to-date forecasts will help you make informed decisions for your surfing adventures in Kuta, Lombok. Stay updated and ride the waves with confidence!

Surf Forecast for Kuta, Lombok

Time (UTC)Temperature (°C)Apparent Temperature (°C)Precipitation Probability (%)Precipitation (mm)MSL Pressure (hPa)Cloud Cover (%)Visibility (m)Wind Speed (m/s)Wind Direction (°)Wind Gusts (m/s)
2026-09-06 00:00:0026.3 °C28.3 °C0 %0 mm1016.4 hPa24 %9840 m16.4 m/s128 °30.2 m/s
2026-09-06 01:00:0027.4 °C29.2 °C5 %0.1 mm1016.8 hPa19 %11140 m16.6 m/s131 °35.3 m/s
2026-09-06 02:00:0028.5 °C30.5 °C13 %0.1 mm1016.6 hPa42 %17400 m17.2 m/s135 °37.4 m/s
2026-09-06 03:00:0028.7 °C31.1 °C18 %0 mm1016 hPa57 %26240 m18.2 m/s139 °40 m/s
2026-09-06 04:00:0028.9 °C31.4 °C19 %0 mm1015.4 hPa84 %26880 m18.7 m/s146 °40.3 m/s
2026-09-06 05:00:0029 °C31.2 °C18 %0 mm1014.3 hPa93 %26880 m21.7 m/s156 °45.7 m/s
2026-09-06 06:00:0028.7 °C30.8 °C16 %0 mm1013.5 hPa88 %13880 m21.8 m/s156 °47.2 m/s
2026-09-06 07:00:0027.7 °C29.5 °C14 %0.1 mm1013.4 hPa93 %11020 m20.1 m/s152 °45.7 m/s
2026-09-06 08:00:0027 °C28.6 °C11 %0.1 mm1013.5 hPa92 %21580 m18.5 m/s149 °42.1 m/s
2026-09-06 09:00:0026.3 °C27.9 °C8 %0.1 mm1013.9 hPa71 %13320 m17.7 m/s149 °38.2 m/s
2026-09-06 10:00:0025.9 °C27.7 °C5 %0.1 mm1014.3 hPa66 %12000 m17.5 m/s148 °35.3 m/s
2026-09-06 11:00:0025.3 °C27.5 °C2 %0.2 mm1015 hPa40 %7680 m16.5 m/s141 °33.8 m/s
2026-09-06 12:00:0024.8 °C27.4 °C0 %0.2 mm1015.8 hPa20 %6300 m14.5 m/s137 °29.5 m/s
2026-09-06 13:00:0024.6 °C27.5 °C0 %0.2 mm1016.2 hPa26 %6740 m12.7 m/s135 °25.2 m/s
2026-09-06 14:00:0024.5 °C27.5 °C0 %0.2 mm1016.3 hPa38 %8800 m11.6 m/s133 °22 m/s
2026-09-06 15:00:0024.5 °C27.6 °C0 %0.1 mm1016.2 hPa34 %10200 m11.2 m/s128 °20.2 m/s
2026-09-06 16:00:0024.4 °C27.6 °C0 %0 mm1016 hPa39 %12780 m10.8 m/s128 °19.4 m/s
2026-09-06 17:00:0024.5 °C27.6 °C0 %0 mm1015.6 hPa62 %14100 m10.9 m/s134 °19.1 m/s
2026-09-06 18:00:0024.5 °C27.6 °C0 %0 mm1014.9 hPa71 %11040 m11.3 m/s136 °20.2 m/s
2026-09-06 19:00:0024.4 °C27.4 °C2 %0 mm1014.7 hPa69 %9320 m11.7 m/s137 °21.2 m/s
2026-09-06 20:00:0024.3 °C27.3 °C4 %0.1 mm1014.9 hPa73 %8960 m12 m/s137 °21.6 m/s
2026-09-06 21:00:0024 °C27.1 °C6 %0.2 mm1015.1 hPa43 %6260 m12 m/s137 °22 m/s
2026-09-06 22:00:0023.7 °C27 °C4 %0.3 mm1015.6 hPa34 %6940 m10.9 m/s134 °20.9 m/s
2026-09-06 23:00:0023.9 °C27.2 °C1 %0.3 mm1016.2 hPa49 %7080 m12.7 m/s126 °21.2 m/s
2026-09-07 00:00:0024.6 °C27.6 °C4 %0.4 mm1016.7 hPa40 %5880 m14.5 m/s132 °28.4 m/s
2026-09-07 01:00:0026.1 °C28.4 °C21 %0.3 mm1017.1 hPa27 %9080 m16.1 m/s138 °33.8 m/s
2026-09-07 02:00:0027.4 °C29.7 °C45 %0.1 mm1017.3 hPa31 %8560 m17.2 m/s143 °37.1 m/s
2026-09-07 03:00:0027.8 °C30.5 °C61 %0.2 mm1016.7 hPa20 %11620 m18.9 m/s148 °40.7 m/s
2026-09-07 04:00:0028.2 °C31.4 °C63 %0.1 mm1015.6 hPa30 %10940 m19.4 m/s151 °42.1 m/s
2026-09-07 05:00:0028.3 °C31.2 °C57 %0.2 mm1014.7 hPa27 %8280 m19.5 m/s154 °42.1 m/s
2026-09-07 06:00:0028.3 °C31.1 °C49 %0.1 mm1013.9 hPa31 %26800 m19.6 m/s155 °42.8 m/s
2026-09-07 07:00:0027.8 °C30 °C41 %0 mm1013.7 hPa83 %16860 m18.1 m/s152 °42.1 m/s
2026-09-07 08:00:0026.9 °C28.5 °C31 %0.2 mm1013.4 hPa88 %9320 m18.6 m/s149 °39.2 m/s
2026-09-07 09:00:0026.4 °C28 °C22 %0.1 mm1013.6 hPa56 %16900 m18.2 m/s147 °38.2 m/s
2026-09-07 10:00:0025.8 °C27.7 °C13 %0 mm1014.2 hPa45 %12280 m16.8 m/s145 °36.4 m/s
2026-09-07 11:00:0025.4 °C27.6 °C6 %0 mm1014.5 hPa70 %12440 m15.8 m/s140 °32 m/s
2026-09-07 12:00:0025.4 °C27.7 °C0 %0 mm1014.9 hPa45 %11340 m15.2 m/s137 °28.8 m/s
2026-09-07 13:00:0025.3 °C27.7 °C0 %0.1 mm1015.2 hPa48 %11540 m14.8 m/s134 °27 m/s
2026-09-07 14:00:0025.2 °C27.6 °C0 %0.1 mm1015.4 hPa73 %11260 m15.3 m/s134 °27.4 m/s
2026-09-07 15:00:0025.1 °C27.5 °C0 %0 mm1015.2 hPa80 %11460 m15.2 m/s134 °27.4 m/s
2026-09-07 16:00:0024.9 °C27.5 °C0 %0.1 mm1014.9 hPa92 %9140 m14 m/s132 °27 m/s
2026-09-07 17:00:0024.9 °C27.6 °C0 %0.1 mm1014.6 hPa92 %8020 m14 m/s135 °24.8 m/s
2026-09-07 18:00:0024.5 °C27.3 °C0 %0.2 mm1014.1 hPa80 %8040 m14.3 m/s138 °25.2 m/s
2026-09-07 19:00:0024.3 °C27.3 °C1 %0.2 mm1013.7 hPa82 %6700 m13.7 m/s140 °25.2 m/s
2026-09-07 20:00:0024.3 °C27.4 °C3 %0.2 mm1013.9 hPa99 %6520 m13 m/s141 °23.8 m/s
2026-09-07 21:00:0024.1 °C27.4 °C4 %0.2 mm1014.4 hPa94 %7040 m12.1 m/s140 °22.7 m/s
2026-09-07 22:00:0024.1 °C27.3 °C1 %0.1 mm1015 hPa81 %9500 m11.7 m/s137 °21.2 m/s
2026-09-07 23:00:0024.7 °C27.8 °C0 %0.1 mm1015.9 hPa81 %7260 m13 m/s136 °22.3 m/s
2026-09-08 00:00:0026 °C28.4 °C2 %0.1 mm1016.5 hPa78 %9420 m15 m/s140 °30.2 m/s
2026-09-08 01:00:0027 °C29.1 °C23 %0.1 mm1016.7 hPa77 %8360 m16.3 m/s142 °34.2 m/s
2026-09-08 02:00:0027.7 °C29.8 °C53 %0.2 mm1016.5 hPa49 %9440 m17.6 m/s145 °37.8 m/s
2026-09-08 03:00:0028.3 °C31 °C76 %0.1 mm1015.8 hPa41 %6540 m18.7 m/s148 °40.3 m/s
2026-09-08 04:00:0028.4 °C31.4 °C86 %0.2 mm1014.8 hPa23 %11640 m19.8 m/s150 °42.5 m/s
2026-09-08 05:00:0028.4 °C31.5 °C88 %0.1 mm1013.8 hPa92 %8720 m19.6 m/s153 °42.5 m/s
2026-09-08 06:00:0028.4 °C31 °C84 %0.1 mm1013.1 hPa74 %12120 m20.2 m/s152 °42.8 m/s
2026-09-08 07:00:0027.8 °C29.6 °C71 %0.1 mm1012.6 hPa88 %17000 m19.8 m/s152 °43.2 m/s
2026-09-08 08:00:0027.1 °C28.8 °C51 %0.2 mm1012.3 hPa94 %13780 m19 m/s149 °41.4 m/s
2026-09-08 09:00:0026.6 °C28.4 °C33 %0 mm1012.4 hPa79 %16040 m18.1 m/s145 °38.5 m/s
2026-09-08 10:00:0026.1 °C28 °C19 %0 mm1012.8 hPa64 %24100 m17.2 m/s142 °36 m/s
2026-09-08 11:00:0025.9 °C28 °C8 %0 mm1013.2 hPa91 %13360 m16.1 m/s140 °32.8 m/s
2026-09-08 12:00:0025.5 °C27.9 °C0 %0 mm1013.8 hPa100 %15200 m14.4 m/s139 °29.5 m/s
2026-09-08 13:00:0025.6 °C28.1 °C0 %0 mm1014.4 hPa100 %14340 m14 m/s135 °25.6 m/s
2026-09-08 14:00:0025.6 °C28.1 °C0 %0 mm1014.6 hPa100 %16980 m14.4 m/s132 °25.9 m/s
2026-09-08 15:00:0025.6 °C28.1 °C0 %0 mm1014.6 hPa99 %15540 m13.9 m/s132 °26.3 m/s
2026-09-08 16:00:0025.4 °C28.1 °C1 %0 mm1014.5 hPa100 %14520 m13.1 m/s132 °24.8 m/s
2026-09-08 17:00:0025.2 °C28 °C2 %0 mm1013.9 hPa100 %13020 m12.1 m/s136 °23.4 m/s
2026-09-08 18:00:0025 °C28 °C2 %0 mm1013.3 hPa100 %15260 m12 m/s137 °22 m/s
2026-09-08 19:00:0024.9 °C27.8 °C2 %0 mm1012.8 hPa100 %12140 m13.3 m/s139 °23.8 m/s
2026-09-08 20:00:0024.9 °C27.6 °C1 %0 mm1012.6 hPa100 %15800 m14.4 m/s146 °25.6 m/s
2026-09-08 21:00:0025.2 °C27.8 °C0 %0 mm1012.8 hPa100 %11920 m14.3 m/s144 °27 m/s
2026-09-08 22:00:0024.9 °C27.7 °C0 %0 mm1013.3 hPa98 %9740 m13.4 m/s141 °26.3 m/s
2026-09-08 23:00:0025.4 °C28.1 °C0 %0 mm1014.2 hPa99 %15320 m14.1 m/s137 °26.3 m/s
2026-09-09 00:00:0026.5 °C28.7 °C0 %0 mm1014.8 hPa97 %12840 m16.3 m/s137 °32.8 m/s
2026-09-09 01:00:0026.9 °C29 °C23 %0.1 mm1015.1 hPa98 %7980 m16.8 m/s138 °34.9 m/s
2026-09-09 02:00:0027.5 °C29.6 °C54 %0.1 mm1015 hPa88 %11000 m17.1 m/s138 °36.7 m/s
2026-09-09 03:00:0028.8 °C31.7 °C76 %0 mm1014.1 hPa52 %16380 m19.2 m/s140 °41 m/s
2026-09-09 04:00:0029 °C32.1 °C83 %0 mm1013 hPa44 %19400 m19.8 m/s143 °42.8 m/s
2026-09-09 05:00:0029 °C32 °C82 %0 mm1012.2 hPa56 %26660 m20 m/s146 °42.8 m/s
2026-09-09 06:00:0028.6 °C31.4 °C75 %0 mm1011.5 hPa99 %16340 m19.8 m/s151 °42.8 m/s
2026-09-09 07:00:0027.8 °C30 °C61 %0.2 mm1011.1 hPa95 %11140 m18.8 m/s151 °42.1 m/s
2026-09-09 08:00:0027.2 °C29.3 °C42 %0.3 mm1011.1 hPa95 %10300 m17.3 m/s147 °39.6 m/s
2026-09-09 09:00:0026.8 °C28.9 °C25 %0.1 mm1011.4 hPa84 %12640 m18 m/s147 °36.4 m/s
2026-09-09 10:00:0026 °C28.4 °C14 %0 mm1011.9 hPa97 %15360 m16.4 m/s141 °35.6 m/s
2026-09-09 11:00:0025.8 °C28.2 °C5 %0 mm1012.3 hPa45 %17220 m16 m/s137 °31.3 m/s
2026-09-09 12:00:0025.8 °C28.2 °C0 %0 mm1012.8 hPa48 %14380 m16 m/s133 °29.9 m/s
2026-09-09 13:00:0025.8 °C28.3 °C0 %0 mm1013.3 hPa94 %17360 m15.8 m/s130 °28.8 m/s
2026-09-09 14:00:0025.6 °C28.2 °C0 %0 mm1013.4 hPa96 %13580 m15 m/s129 °28.4 m/s
2026-09-09 15:00:0025.6 °C28.3 °C2 %0 mm1013.4 hPa100 %13860 m14.2 m/s126 °26.6 m/s
2026-09-09 16:00:0025.4 °C28.3 °C2 %0 mm1013.4 hPa100 %11240 m14 m/s123 °27 m/s
2026-09-09 17:00:0025.1 °C28.2 °C2 %0 mm1012.9 hPa100 %9480 m13.9 m/s119 °25.6 m/s
2026-09-09 18:00:0024.9 °C28 °C2 %0.1 mm1012.3 hPa99 %7980 m14.1 m/s118 °25.2 m/s
2026-09-09 19:00:0024.8 °C27.8 °C2 %0.1 mm1012.2 hPa89 %10520 m14.8 m/s114 °26.3 m/s
2026-09-09 20:00:0024.9 °C27.7 °C2 %0.1 mm1012.2 hPa75 %13080 m15.8 m/s111 °27.7 m/s
2026-09-09 21:00:0025.1 °C27.7 °C2 %0.1 mm1012.4 hPa62 %15620 m16.7 m/s109 °29.9 m/s
2026-09-09 22:00:0025.6 °C27.9 °C1 %0 mm1013 hPa49 %16820 m17.9 m/s109 °32.4 m/s
2026-09-09 23:00:0026.2 °C28.4 °C0 %0 mm1013.8 hPa36 %18040 m18.7 m/s110 °35.3 m/s
2026-09-10 00:00:0026.9 °C28.9 °C0 %0 mm1014.3 hPa29 %19240 m19.6 m/s112 °38.2 m/s
2026-09-10 01:00:0027.7 °C29.5 °C4 %0.1 mm1014.4 hPa33 %21700 m20.1 m/s117 °40.3 m/s
2026-09-10 02:00:0028.4 °C30.4 °C10 %0.1 mm1014.2 hPa43 %24140 m20.6 m/s122 °42.5 m/s
2026-09-10 03:00:0029 °C31.6 °C18 %0.1 mm1013.8 hPa46 %26600 m21.2 m/s127 °44.3 m/s
2026-09-10 04:00:0029.3 °C32.3 °C30 %0 mm1012.9 hPa35 %26600 m22.1 m/s131 °46.1 m/s
2026-09-10 05:00:0029.5 °C32.5 °C44 %0 mm1011.7 hPa17 %26580 m22.9 m/s134 °47.5 m/s
2026-09-10 06:00:0029.3 °C32.1 °C49 %0 mm1010.9 hPa5 %26580 m23.5 m/s135 °48.6 m/s
2026-09-10 07:00:0028.8 °C31.1 °C39 %0 mm1010.6 hPa1 %25720 m23.9 m/s136 °49 m/s
2026-09-10 08:00:0028 °C29.7 °C22 %0 mm1010.7 hPa3 %24840 m23.9 m/s135 °49 m/s
2026-09-10 09:00:0027.3 °C29 °C8 %0 mm1011 hPa12 %23980 m23.8 m/s133 °48.6 m/s
2026-09-10 10:00:0026.9 °C28.5 °C3 %0 mm1011.5 hPa35 %23980 m23.4 m/s130 °47.9 m/s
2026-09-10 11:00:0026.5 °C28.1 °C1 %0 mm1012.3 hPa66 %23960 m22.8 m/s126 °47.2 m/s
2026-09-10 12:00:0026.2 °C27.9 °C0 %0 mm1012.9 hPa89 %23960 m22.1 m/s122 °45.7 m/s
2026-09-10 13:00:0026.1 °C27.9 °C0 %0 mm1013.3 hPa97 %23080 m20.9 m/s119 °43.9 m/s
2026-09-10 14:00:0026 °C28.1 °C0 %0 mm1013.7 hPa98 %22220 m19.5 m/s118 °41.8 m/s
2026-09-10 15:00:0025.9 °C28.2 °C0 %0 mm1013.8 hPa98 %21340 m18.4 m/s116 °39.6 m/s
2026-09-10 16:00:0025.6 °C28.1 °C0 %0 mm1013.6 hPa98 %18720 m17.9 m/s114 °37.8 m/s
2026-09-10 17:00:0025.4 °C28 °C0 %0 mm1013.2 hPa97 %16120 m17.8 m/s112 °35.6 m/s
2026-09-10 18:00:0025.2 °C27.9 °C0 %0 mm1012.9 hPa95 %13500 m17.8 m/s110 °34.2 m/s
2026-09-10 19:00:0025 °C27.7 °C0 %0 mm1012.7 hPa93 %14320 m17.6 m/s108 °33.1 m/s
2026-09-10 20:00:0024.9 °C27.6 °C0 %0 mm1012.5 hPa91 %15140 m17.4 m/s106 °32.4 m/s
2026-09-10 21:00:0025 °C27.8 °C0 %0 mm1012.6 hPa89 %15960 m17 m/s105 °31.7 m/s
2026-09-10 22:00:0025.6 °C28.5 °C0 %0 mm1013.1 hPa87 %18540 m15.9 m/s106 °30.2 m/s
2026-09-10 23:00:0026.4 °C29.4 °C0 %0 mm1013.8 hPa84 %21140 m14.6 m/s109 °29.2 m/s
2026-09-11 00:00:0027.2 °C30.2 °C0 %0 mm1014.2 hPa80 %23720 m14.4 m/s113 °29.9 m/s
2026-09-11 01:00:0028.1 °C30.8 °C0 %0 mm1014.3 hPa72 %24560 m16.3 m/s118 °34.6 m/s
2026-09-11 02:00:0029.1 °C32.1 °C0 %0 mm1014.1 hPa63 %25380 m19.5 m/s124 °41.4 m/s
2026-09-11 03:00:0029.7 °C33.1 °C4 %0 mm1013.7 hPa59 %26220 m21.9 m/s127 °46.4 m/s
2026-09-11 04:00:0029.9 °C33.4 °C16 %0 mm1012.9 hPa66 %25100 m22.8 m/s129 °48.2 m/s
2026-09-11 05:00:0029.7 °C33 °C33 %0 mm1011.9 hPa78 %23960 m22.8 m/s131 °48.2 m/s
2026-09-11 06:00:0029.4 °C32.2 °C47 %0 mm1011.2 hPa88 %22840 m22.8 m/s131 °48.2 m/s
2026-09-11 07:00:0028.9 °C30.9 °C57 %0 mm1010.9 hPa94 %23200 m22.9 m/s130 °48.2 m/s
2026-09-11 08:00:0028.2 °C30 °C65 %0 mm1010.8 hPa98 %23560 m22.8 m/s126 °47.9 m/s
2026-09-11 09:00:0027.6 °C29.5 °C67 %0 mm1011 hPa100 %23920 m22.4 m/s123 °47.2 m/s
2026-09-11 10:00:0027.1 °C29.3 °C60 %0 mm1011.5 hPa98 %22680 m21.5 m/s120 °46.1 m/s
2026-09-11 11:00:0026.7 °C29.2 °C48 %0 mm1012.3 hPa94 %21460 m20.1 m/s117 °45 m/s
2026-09-11 12:00:0026.4 °C29.1 °C35 %0 mm1012.9 hPa92 %20220 m19.1 m/s114 °43.2 m/s
2026-09-11 13:00:0026.1 °C29 °C24 %0 mm1013.2 hPa93 %16760 m18.2 m/s113 °40.3 m/s
2026-09-11 14:00:0025.9 °C28.9 °C12 %0 mm1013.4 hPa95 %13280 m17 m/s113 °37.1 m/s
2026-09-11 15:00:0025.8 °C28.9 °C4 %0 mm1013.4 hPa97 %9820 m16.2 m/s113 °34.2 m/s
2026-09-11 16:00:0025.6 °C28.8 °C1 %0 mm1013.2 hPa98 %11540 m15.4 m/s111 °32 m/s
2026-09-11 17:00:0025.5 °C28.8 °C0 %0 mm1012.7 hPa99 %13280 m14.8 m/s108 °30.2 m/s
2026-09-11 18:00:0025.3 °C28.7 °C0 %0 mm1012.4 hPa100 %15000 m14.1 m/s106 °28.8 m/s
2026-09-11 19:00:0025 °C28.6 °C0 %0 mm1012.1 hPa100 %16160 m12.7 m/s106 °27.4 m/s
2026-09-11 20:00:0024.7 °C28.6 °C0 %0 mm1012 hPa100 %17320 m11.1 m/s107 °25.9 m/s
2026-09-11 21:00:0024.7 °C28.8 °C0 %0 mm1012 hPa99 %18480 m10 m/s108 °24.8 m/s
2026-09-11 22:00:0026.4 °C30.2 °C0 %0 mm1013.6 hPa95 %20280 m10.2 m/s104 °21.2 m/s
2026-09-11 23:00:0026.8 °C30.6 °C0 %0 mm1013.7 hPa94 %22080 m9.7 m/s106 °20.9 m/s
2026-09-12 00:00:0027.2 °C30.9 °C0 %0 mm1013.7 hPa93 %23880 m10 m/s110 °22 m/s
2026-09-12 01:00:0027.7 °C31.1 °C4 %0 mm1013.3 hPa94 %24300 m11.1 m/s117 °25.2 m/s
2026-09-12 02:00:0028.3 °C32.1 °C10 %0 mm1012.7 hPa96 %24740 m13.1 m/s124 °30.6 m/s
2026-09-12 03:00:0029 °C33.1 °C17 %0 mm1011.9 hPa98 %25160 m15.9 m/s129 °37.1 m/s
2026-09-12 04:00:0029.5 °C33.5 °C24 %0 mm1011.1 hPa100 %25580 m18.6 m/s133 °43.2 m/s
2026-09-12 05:00:0029.9 °C33.4 °C30 %0 mm1010.5 hPa99 %26020 m21 m/s135 °48.6 m/s
2026-09-12 06:00:0030 °C32.9 °C37 %0 mm1010.2 hPa96 %26440 m22.5 m/s135 °52.2 m/s
2026-09-12 07:00:0029.7 °C31.7 °C43 %0 mm1010.3 hPa89 %26000 m23 m/s134 °53.3 m/s
2026-09-12 08:00:0029.1 °C30.4 °C49 %0 mm1010.6 hPa78 %25580 m22.8 m/s131 °53.3 m/s
2026-09-12 09:00:0028.3 °C29.8 °C54 %0 mm1011 hPa66 %25140 m22.5 m/s127 °52.2 m/s
2026-09-12 10:00:0027.5 °C29.2 °C58 %0 mm1011.6 hPa53 %24700 m21.8 m/s123 °50.4 m/s
2026-09-12 11:00:0026.7 °C28.7 °C60 %0 mm1012 hPa42 %24280 m21.3 m/s118 °48.6 m/s
2026-09-12 12:00:0026.2 °C28.3 °C59 %0 mm1012.3 hPa33 %23840 m20.9 m/s115 °47.2 m/s
2026-09-12 13:00:0025.8 °C28.1 °C52 %0 mm1012.4 hPa27 %22740 m20.6 m/s114 °45.7 m/s
2026-09-12 14:00:0025.6 °C28 °C42 %0 mm1012.3 hPa23 %21640 m20.3 m/s112 °44.3 m/s
2026-09-12 15:00:0025.5 °C27.9 °C31 %0 mm1012.2 hPa20 %20540 m19.8 m/s112 °42.8 m/s
2026-09-12 16:00:0025.4 °C28 °C20 %0 mm1012.1 hPa18 %19440 m19.1 m/s111 °41 m/s
2026-09-12 17:00:0025.4 °C28.1 °C8 %0 mm1012 hPa17 %18340 m18.3 m/s111 °39.6 m/s
2026-09-12 18:00:0025.4 °C28.3 °C0 %0 mm1012.1 hPa15 %17240 m17.3 m/s110 °38.2 m/s
2026-09-12 19:00:0025.6 °C28.5 °C0 %0 mm1012.4 hPa13 %18340 m15.8 m/s109 °36.7 m/s
2026-09-12 20:00:0025.8 °C28.9 °C0 %0 mm1012.8 hPa12 %19440 m13.7 m/s106 °34.9 m/s
2026-09-12 21:00:0026.1 °C29.4 °C0 %0 mm1013.3 hPa11 %20540 m11.5 m/s104 °33.1 m/s
2026-09-12 22:00:0026.4 °C29.9 °C0 %0 mm1013.8 hPa10 %21620 m9.5 m/s100 °31.7 m/s
2026-09-12 23:00:0026.8 °C30.3 °C0 %0 mm1014.1 hPa10 %22720 m8.2 m/s99 °31 m/s

*this data using open-mateo.com data

Lombok, with its stunning coastline and pristine beaches, is a surfer’s paradise. This beautiful island offers everything from gentle waves for beginners to challenging swells for seasoned pros.

Understanding the surf forecast in Lombok is crucial for anyone looking to catch the perfect wave. In this guide, we will explore how to read surf forecasts, the best surfing spots in Lombok, and essential tips for making the most of your surfing adventure.

Understanding Surf Forecasts

Surf forecasts provide valuable information about wave conditions, helping surfers plan their sessions. A typical surf forecast includes key elements such as:

  • Wave Height: Indicates the size of the waves. Taller waves typically offer more challenging conditions.
  • Wind Speed and Direction: Wind affects wave quality. Offshore winds create clean, well-formed waves, while onshore winds can create choppy conditions.
  • Tide Times: Tides significantly impact surfing. Some spots work better at high tide, while others are best at low tide.
  • Weather Conditions: Rain and stormy weather can affect visibility and safety, so keeping an eye on weather conditions is vital.

Why Kuta, Lombok is a Surfing Hotspot

Kuta, Lombok, stands out as a vibrant surf culture hub. The area boasts several surf spots catering to various skill levels. For beginners, the mellow waves at Kuta Beach offer a safe and welcoming environment. In contrast, more experienced surfers can challenge themselves at spots like Gerupuk and Selong Belanak, where the waves pack a punch.

How to Read a Surf Forecast

Learning to read a surf forecast is essential for any surfer. Start by checking reliable online resources or apps. Look for the following indicators:

  1. Wave Height: Surfable waves typically range from 1 to 3 meters for most surfers.
  2. Wind Direction: Offshore winds (blowing from land to sea) are ideal. Onshore winds can disrupt wave quality.
  3. Tide Information: Check if the conditions favor high or low tide for your chosen surf spot.

By understanding these elements, you can plan your sessions to coincide with the best conditions.

Local Factors Affecting Surf Conditions

Local weather patterns play a significant role in shaping Lombok’s surf conditions. Seasonal changes bring varying swells, with the dry season (May to September) often providing the best surfing conditions. Additionally, the tides influence wave quality at different spots. Knowing when to surf is key to maximizing your experience.

Top Surfing Seasons in Lombok

Lombok has two main surfing seasons, with each offering unique conditions. The dry season sees consistent swells, making it the prime time for surfers. The wet season (October to March) can bring larger swells but may also come with unpredictable weather. Regardless of the season, checking the surf forecast is vital to ensure a successful trip.

Using Technology to Enhance Your Surf Experience

Technology can significantly improve your surfing experience. Several popular surf forecasting apps and websites provide real-time updates on wave conditions, wind patterns, and tide times. Utilizing these tools helps you stay informed and ready for your next surf session.

Expert Tips for Surfing in Lombok

To make the most of your surfing experience in Lombok, consider these expert tips:

  • Safety First: Always prioritize safety. Check local conditions and follow guidelines from instructors if you’re a beginner.
  • Respect Local Etiquette: Understand and respect local surf etiquette to foster a positive surfing community.
  • Stay Hydrated: Surfing can be physically demanding, so ensure you drink plenty of water during your sessions.

Staying informed with the latest surf forecast in Lombok is essential for any surfer looking to enjoy the best conditions. With its beautiful beaches and vibrant surf culture, Lombok is a destination that promises unforgettable experiences. So grab your board, check the forecast, and ride the waves of Lombok!